Weather Roundup
Issued by NWS

Home | Current Version | Previous Version | Text Only | Print | Product List | Glossary On
Versions: 1 2 3 4 5 6 7 8 9 10 11 12 13 14 15 16 17 18 19 20 21 22 23 24 25 26 27 28 29 30 31 32 33 34 35 36 37 38 39 40 41 42 43 44 45 46 47 48 49 50
000
NZUS93 KARX 290110
HRRWXR

CURRENT HOURLY OBSERVATIONS ACROSS
MUCH OF THE UPPER MISSISSIPPI VALLEY
NATIONAL WEATHER SERVICE LA CROSSE WI
800 PM CDT MON JUL 28 2014


...SOUTHEAST MINNESOTA...


CITY           SKY/WX    TMP DP  RH WIND       PRES   REMARKS
ROCHESTER      CLEAR     68  51  54 NW7       30.15F
ROCHESTER/MAYO FAIR      71  47  42 W7        30.14S
WINONA         CLEAR     70  54  56 CALM      30.12S
AUSTIN         PTCLDY    68  54  60 NW3       30.15S
ALBERT LEA     CLEAR     68  54  60 CALM      30.16S
DODGE CENTER   CLEAR     68  54  60 NW5       30.15F
PRESTON        CLEAR     65  60  81 NW3       30.15S
OWATONNA       CLEAR     70  54  56 W5        30.15F
FARIBAULT      CLEAR     72  55  56 CALM      30.15S
$$

...ELSEWHERE IN MINNESOTA...


CITY           SKY/WX    TMP DP  RH WIND       PRES   REMARKS
MINNEAPOLIS    PTCLDY    73  53  49 NW8       30.13S
INTNL FALLS    CLEAR     69  58  67 W6        30.12S
DULUTH         PTCLDY    69  54  58 NW6       30.10S
RED WING       CLEAR     70  59  68 CALM      30.11S
REDWOOD FALLS  CLEAR     71  53  52 NW7       30.17F
MANKATO        PTCLDY    70  54  56 NW7       30.15F
WORTHINGTON    CLEAR     66  55  68 N6        30.21F
FAIRMONT       PTCLDY    72  52  49 NW6       30.17F
$$

...SOUTHWEST WISCONSIN...


CITY           SKY/WX    TMP DP  RH WIND       PRES   REMARKS
LA CROSSE      CLEAR     71  53  52 NW8       30.10F
PRAIRIE DU CHI CLEAR     69  49  48 W5        30.10F
BOSCOBEL       CLEAR     70  54  56 CALM      30.10F
LONE ROCK      CLEAR     70  54  56 NW6       30.09F
PLATTEVILLE    CLEAR     66  53  62 NW3       30.11F
FORT MC COY    CLEAR     67  53  59 CALM      30.11F
CAMP DOUGLAS   MOCLDY    64  57  77 NW5       30.09F
VIROQUA        FAIR      64  54  68 NW3       30.12F
WIS DELLS      PTCLDY    67  51  55 NW5       30.09S
$$

...ELSEWHERE IN WISCONSIN...


CITY           SKY/WX    TMP DP  RH WIND       PRES   REMARKS
MILWAUKEE      MOCLDY    61  48  62 S5        30.06F
MADISON        MOCLDY    70  51  51 NW5       30.07F
GREEN BAY      MOCLDY    66  56  70 W5        30.04S
EAU CLAIRE     CLEAR     70  53  54 NW5       30.10F
BLACK RVR FLS  FAIR      69  53  55 W3        30.10F
MEDFORD        CLOUDY    64  55  71 W3        30.10F
WAUSAU         CLOUDY    65  55  70 W9        30.06F
WIS RAPIDS     CLOUDY    68  55  63 NW5       30.10S
MARSHFIELD     CLOUDY    67  55  65 NW5       30.09F
RICE LAKE      CLEAR     69  53  57 W3        30.13S
$$

...NORTHEAST IOWA...


CITY           SKY/WX    TMP DP  RH WIND       PRES   REMARKS
WATERLOO       PTCLDY    69  56  62 N6        30.12F
DUBUQUE        CLEAR     66  55  67 NW3       30.12F
DECORAH        CLEAR     66  55  68 NW3       30.13S
MASON CITY     MOCLDY    69  55  60 N6        30.17S
CHARLES CITY   PTCLDY    66  57  72 NW3       30.15S
OELWEIN        CLEAR     68  57  68 CALM      30.14S
$$

...ELSEWHERE IN IOWA...


CITY           SKY/WX    TMP DP  RH WIND       PRES   REMARKS
DES MOINES     MOCLDY    71  58  63 N6        30.15S
IOWA CITY      CLEAR     69  59  70 W7        30.13F
FORT DODGE     CLEAR     70  57  64 CALM      30.17F
MARSHALLTOWN   CLEAR     70  58  65 NE3       30.14S
CEDAR RAPIDS   PTCLDY    68  57  68 NW3       30.12S
$$

...NORTHERN ILLINOIS...


CITY           SKY/WX    TMP DP  RH WIND       PRES   REMARKS
CHICAGO-OHARE  MOCLDY    66  49  54 E7        30.06F
DUPAGE         CLEAR     67  51  56 W8        30.06F
CHICAGO-MIDWAY PTCLDY    66  51  58 E7        30.06F
MOLINE         CLEAR     70  49  47 NW5       30.11S
ROCKFORD       PTCLDY    68  53  58 W6        30.10S
STERLING       CLEAR     66  54  63 NW7       30.10F
PEORIA         CLEAR     69  51  52 NW3       30.11F
$$

NOTE: "FAIR" INDICATES FEW OR NO CLOUDS BELOW 12,000 FEET WITH NO
SIGNIFICANT WEATHER AND/OR OBSTRUCTIONS TO VISIBILITY. WIND
SPEEDS ARE IN MILES-PER-HOUR.



USA.gov is the U.S. government's official web portal to all federal, state and local government web resources and services.